[[{"header":{"parameterUnit":"m.s-1","parameterCategory":1,"la1":30.2991,"la2":30.254,"lo1":-89.0895,"lo2":-89.0444,"dy":0.0017,"dx":0.0017,"nx":28,"ny":28,"refTime":"2025-01-21T03:00:00:Z","depth":0,"parameterNumber":2,"parameterNumberName":"U-component_of_WINDS"},"data":[0,0,0,0,0,0,0,0,0,0,0,0,0,0,0,0,0,0,0,0,0,0,0,0,0,0,0,0,0,0,0,0,0,0,0,0,0,0,0,0,0,0,0,0,0,0,0,0,0,0,0,0,0,0,0,0,0,0,-2.6802,-2.6802,0,-2.6832,-2.6832,-2.6832,-2.6745,-2.6742,-2.6739,-2.6737,-2.6771,-2.6774,-2.6777,0,0,0,0,0,0,0,0,0,0,0,0,0,-2.667,-2.6673,-2.6802,-2.6802,-2.6802,-2.6832,-2.6832,-2.6832,-2.6745,-2.6742,-2.6738,-2.6735,-2.677,-2.6774,-2.6778,0,0,0,0,0,0,0,0,0,0,0,0,0,-2.6717,-2.6674,-2.6802,-2.6762,-2.6759,-2.6832,-2.6832,-2.6833,-2.6746,-2.6742,-2.6738,-2.6734,-2.6768,-2.6773,-2.6778,-2.6892,0,0,-2.6794,-2.6796,0,0,0,0,0,0,0,0,-2.6714,-2.6721,-2.6768,-2.6765,-2.6761,-2.678,-2.6798,-2.6853,-2.6747,-2.6751,-2.6736,-2.6732,-2.6777,-2.6782,-2.6796,-2.6893,-2.6895,-2.6795,-2.6798,-2.68,-2.6801,0,0,0,0,0,0,0,-2.6711,-2.672,-2.6814,-2.6768,-2.6765,-2.6743,-2.6746,-2.6808,-2.6787,-2.675,-2.6744,-2.6748,-2.6775,-2.6791,-2.6796,-2.6895,-2.6794,-2.6799,-2.6802,-2.6804,-2.7086,-2.709,0,0,0,0,0,0,-2.6712,-2.6718,-2.6813,-2.6814,-2.6727,-2.6749,-2.6751,-2.6778,-2.6786,-2.6783,-2.6752,-2.6744,-2.6785,-2.679,-2.6797,-2.693,-2.68,-2.6805,-2.6808,-2.7081,-2.7087,-2.7091,0,0,0,0,0,0,-2.671,-2.6722,-2.6811,-2.6764,-2.6774,-2.6756,-2.6787,-2.6781,-2.6797,-2.6787,-2.6783,-2.6773,-2.6782,-2.679,-2.6868,-2.693,-2.6807,-2.6812,-2.7076,-2.7083,-2.7089,-2.7197,0,0,0,0,0,0,-2.6707,-2.6721,-2.6764,-2.6766,-2.6777,-2.6882,-2.679,-2.6785,-2.6806,-2.6796,-2.6805,-2.6803,-2.6779,-2.6861,-2.6874,-2.6935,-2.6816,-2.7071,-2.7079,-2.7087,-2.7188,-2.7207,-2.7223,0,0,0,0,0,-2.6702,-2.6794,-2.6767,-2.6779,-2.683,-2.6886,-2.6892,-2.6862,-2.6812,-2.6854,-2.6847,-2.6803,-2.6921,-2.687,-2.6883,-2.6947,-2.7067,-2.7077,-2.7086,-2.7181,-2.7203,-2.7222,0,0,0,0,0,0,-2.6802,-2.6794,-2.6763,-2.6858,-2.6873,-2.6871,-2.6924,-2.6887,-2.6917,-2.6907,-2.6869,-2.6872,-2.6957,-2.696,-2.6903,-2.7057,-2.6985,-2.6998,-2.7052,-2.7074,-2.7091,-2.7089,-2.682,0,0,0,0,0,-2.6834,-2.688,-2.6871,-2.6956,-2.6964,-2.6943,-2.6966,-2.6941,-2.6956,-2.6962,-2.6961,-2.6977,-2.7018,-2.7046,-2.7082,-2.7187,-2.7188,-2.7238,-2.7255,-2.7269,-2.7282,-2.7337,-2.7359,-2.7124,-2.7124,-2.7123,0,0,-2.6903,-2.6905,-2.6936,-2.6976,-2.6984,-2.7033,-2.6949,-2.7004,-2.704,-2.6971,-2.7045,-2.7044,-2.706,-2.7152,-2.7192,-2.7156,-2.7346,-2.7282,-2.7293,-2.7298,-2.7349,-2.7372,-2.7391,-2.713,-2.7129,-2.7128,0,0,-2.7054,-2.7059,-2.713,-2.714,-2.7153,-2.7138,-2.7155,-2.7158,-2.7154,-2.7227,-2.7176,-2.7218,-2.7289,-2.7302,-2.7318,-2.7471,-2.7431,-2.7484,-2.7575,-2.763,-2.7648,-2.7665,-2.772,-2.774,-2.7496,-2.7496,-2.7497,0,-2.7138,-2.7208,-2.7172,-2.723,-2.7249,-2.7186,-2.7258,-2.727,-2.7295,-2.731,-2.7269,-2.7356,-2.7362,-2.7456,-2.7493,-2.7508,-2.7527,-2.7484,-2.7648,-2.7664,-2.7679,-2.7731,-2.7752,-2.7503,-2.7502,-2.7501,-2.7501,0,-2.7312,-2.7361,-2.7417,-2.7441,-2.7466,-2.7532,-2.7505,-2.7535,-2.7507,-2.7497,-2.7571,-2.7576,-2.7613,-2.7633,-2.7607,-2.7723,-2.77,-2.7654,-2.7582,-2.7708,-2.7757,-2.7777,-2.7512,-2.751,-2.7508,-2.7506,0,0,-2.7528,-2.753,-2.7551,-2.7561,-2.757,-2.7608,-2.767,-2.7704,-2.773,-2.7749,-2.7801,-2.7861,-2.7818,-2.7836,-2.7811,-2.7859,-2.798,-2.7806,-2.7806,-2.7839,-2.8109,-2.8144,-2.8168,-2.7952,-2.7956,-2.7959,-2.8107,0,-2.7677,-2.7782,-2.775,-2.7856,-2.7901,-2.7841,-2.7895,-2.7907,-2.7898,-2.7935,-2.7925,-2.7969,-2.7909,-2.7919,-2.7963,-2.7956,-2.8034,-2.7944,-2.8001,-2.8003,-2.8,-2.8193,-2.8231,-2.8371,-2.8126,-2.8129,-2.8132,0,-2.7865,-2.789,-2.8001,-2.8001,-2.8019,-2.8068,-2.8096,-2.8132,-2.8144,-2.8134,-2.8153,-2.8117,-2.8178,-2.8104,-2.8188,-2.8128,-2.8148,-2.8148,-2.8153,-2.8158,-2.8077,-2.8205,-2.8415,-2.8437,-2.8161,-2.8159,-2.8156,0,-2.8013,-2.8074,-2.8148,-2.8158,-2.816,-2.8196,-2.8199,-2.8206,-2.8228,-2.8253,-2.8267,-2.8299,-2.8317,-2.8343,-2.8317,-2.8265,-2.8404,-2.8328,-2.8399,-2.84,-2.8433,-2.8431,-2.8651,-2.8444,-2.8443,-2.8443,-2.8443,0,-2.8184,-2.8254,-2.8214,-2.826,-2.8337,-2.8299,-2.8376,-2.8372,-2.8378,-2.8422,-2.8372,-2.8415,-2.8377,-2.8416,-2.8396,-2.8469,-2.8477,-2.8471,-2.8465,-2.8477,-2.8478,-2.8491,-2.8481,-2.8449,-2.8447,-2.8446,-2.8445,0,-2.8363,-2.8339,-2.8416,-2.8411,-2.8411,-2.8468,-2.8463,-2.8506,-2.8492,-2.8548,-2.8559,-2.8538,-2.8582,-2.8557,-2.8603,-2.8589,-2.8683,-2.8663,-2.8679,-2.8675,-2.8747,-2.8741,-2.8984,-2.9014,-2.8787,-2.8789,-2.8791,0,-2.8475,-2.8527,-2.8527,-2.8552,-2.8557,-2.8599,-2.8621,-2.8585,-2.861,-2.8626,-2.8666,-2.8705,-2.8734,-2.8806,-2.8796,-2.8829,-2.8811,-2.8893,-2.8816,-2.8825,-2.8813,-2.8811,-2.8816,-2.891,-2.8913,-2.8915,-2.8916,0,-2.8675,-2.866,-2.8693,-2.8722,-2.8749,-2.877,-2.8787,-2.8811,-2.8774,-2.8805,-2.8848,-2.8871,-2.8915,-2.8955,-2.8983,-2.8986,-2.8946,-2.894,-2.8959,-2.8972,-2.8979,-2.8977,-2.8723,-2.8936,-2.8934,-2.8932,-2.8931,-2.8931,-2.8824,-2.8868,-2.8874,-2.8912,-2.8921,-2.8937,-2.8976,-2.8967,-2.9001,-2.9034,-2.9011,-2.9062,-2.9071,-2.9105,-2.9113,-2.9152,-2.9119,-2.9146,-2.9153,-2.916,-2.917,-2.8971,-2.9157,-2.9157,-2.9156,-2.9156,-2.9155,0,-2.9023,-2.9023,-2.9058,-2.9083,-2.9113,-2.907,-2.9086,-2.9115,-2.916,-2.9171,-2.92,-2.9249,-2.9286,-2.9277,-2.9311,-2.9344,-2.9327,-2.9355,-2.9353,-2.9354,-2.9198,-2.9179,-2.9368,-2.9368,-2.9368,-2.9368,-2.9368,-2.9368,-2.913,-2.9201,-2.9187,-2.9261,-2.9261,-2.931,-2.9323,-2.9338,-2.9346,-2.9403,-2.9433,-2.9426,-2.943,-2.9462,-2.9495,-2.9491,-2.9506,-2.9541,-2.9532,-2.9386,-2.9365,-2.9345,-2.9327,-2.9545,-2.9545,-2.9685,-2.9686,-2.9687]},{"header":{"parameterUnit":"m.s-1","parameterCategory":1,"la1":30.2991,"la2":30.254,"lo1":-89.0895,"lo2":-89.0444,"dy":0.0017,"dx":0.0017,"nx":28,"ny":28,"refTime":"2025-01-21T03:00:00:Z","depth":0,"parameterNumber":3,"parameterNumberName":"V-component_of_WINDS"},"data":[0,0,0,0,0,0,0,0,0,0,0,0,0,0,0,0,0,0,0,0,0,0,0,0,0,0,0,0,0,0,0,0,0,0,0,0,0,0,0,0,0,0,0,0,0,0,0,0,0,0,0,0,0,0,0,0,0,0,-7.1556,-7.1556,0,-7.1601,-7.1602,-7.1602,-7.1505,-7.1502,-7.1499,-7.1496,-7.154,-7.1544,-7.1548,0,0,0,0,0,0,0,0,0,0,0,0,0,-7.1382,-7.1386,-7.1556,-7.1556,-7.1557,-7.1601,-7.1602,-7.1602,-7.1506,-7.1502,-7.1498,-7.1495,-7.1539,-7.1544,-7.1549,0,0,0,0,0,0,0,0,0,0,0,0,0,-7.1445,-7.1387,-7.1556,-7.1514,-7.1511,-7.1601,-7.1602,-7.1602,-7.1507,-7.1502,-7.1497,-7.1493,-7.1537,-7.1543,-7.1549,-7.1681,0,0,-7.1568,-7.1571,0,0,0,0,0,0,0,0,-7.1442,-7.1452,-7.152,-7.1517,-7.1514,-7.1543,-7.1556,-7.1629,-7.1508,-7.1508,-7.1496,-7.1491,-7.1545,-7.155,-7.1569,-7.1683,-7.1685,-7.1569,-7.1572,-7.1575,-7.1577,0,0,0,0,0,0,0,-7.1438,-7.1449,-7.1574,-7.1521,-7.1517,-7.1492,-7.1496,-7.157,-7.1552,-7.1508,-7.1501,-7.1508,-7.1542,-7.1563,-7.1569,-7.1685,-7.1568,-7.1574,-7.1578,-7.158,-7.1908,-7.1913,0,0,0,0,0,0,-7.1439,-7.1446,-7.1572,-7.1575,-7.1466,-7.1499,-7.1503,-7.1538,-7.1551,-7.1549,-7.1512,-7.1503,-7.1555,-7.1562,-7.157,-7.1724,-7.1575,-7.1581,-7.1584,-7.1903,-7.1909,-7.1914,0,0,0,0,0,0,-7.1436,-7.1451,-7.157,-7.1509,-7.1522,-7.1507,-7.1547,-7.1542,-7.1562,-7.1554,-7.155,-7.1537,-7.1551,-7.1562,-7.1654,-7.1724,-7.1583,-7.1589,-7.1897,-7.1905,-7.1912,-7.2033,0,0,0,0,0,0,-7.1431,-7.1451,-7.1501,-7.1511,-7.1526,-7.1655,-7.1551,-7.1546,-7.1573,-7.1563,-7.1576,-7.1574,-7.1549,-7.1645,-7.166,-7.173,-7.1594,-7.1891,-7.19,-7.1909,-7.2023,-7.2044,-7.2062,0,0,0,0,0,-7.1425,-7.1534,-7.1505,-7.152,-7.1589,-7.1659,-7.1667,-7.1637,-7.158,-7.163,-7.1624,-7.1574,-7.1714,-7.1655,-7.1671,-7.1744,-7.1886,-7.1898,-7.1909,-7.2014,-7.204,-7.2061,0,0,0,0,0,0,-7.1532,-7.1534,-7.1502,-7.1617,-7.1639,-7.1643,-7.1705,-7.1665,-7.1703,-7.1691,-7.165,-7.1654,-7.1754,-7.1758,-7.1693,-7.1871,-7.179,-7.1805,-7.1865,-7.1889,-7.1908,-7.1905,-7.1599,0,0,0,0,0,-7.157,-7.1627,-7.1625,-7.1727,-7.1739,-7.1721,-7.175,-7.1724,-7.1745,-7.1753,-7.1754,-7.1775,-7.1824,-7.1857,-7.1901,-7.2023,-7.2023,-7.2081,-7.21,-7.2116,-7.2129,-7.2192,-7.2217,-7.1952,-7.1952,-7.1951,0,0,-7.1647,-7.1655,-7.1693,-7.1748,-7.1762,-7.1821,-7.1729,-7.1796,-7.1839,-7.1763,-7.185,-7.1852,-7.1872,-7.198,-7.2027,-7.1986,-7.2203,-7.2131,-7.2144,-7.2148,-7.2207,-7.2232,-7.2254,-7.1959,-7.1958,-7.1957,0,0,-7.1817,-7.183,-7.1915,-7.193,-7.1953,-7.1939,-7.196,-7.197,-7.1968,-7.2055,-7.1999,-7.2049,-7.2134,-7.2151,-7.217,-7.2346,-7.23,-7.2361,-7.2464,-7.2525,-7.2546,-7.2564,-7.2626,-7.2648,-7.2375,-7.2375,-7.2375,0,-7.1909,-7.1998,-7.1963,-7.2034,-7.2059,-7.1994,-7.2078,-7.2095,-7.2131,-7.2149,-7.2103,-7.2207,-7.2217,-7.2326,-7.2369,-7.2387,-7.2408,-7.2359,-7.2546,-7.2564,-7.2581,-7.2639,-7.2662,-7.2382,-7.2381,-7.2381,-7.238,0,-7.2109,-7.2171,-7.2237,-7.2273,-7.2306,-7.2384,-7.236,-7.2397,-7.2368,-7.2359,-7.2447,-7.2456,-7.2501,-7.2525,-7.2498,-7.263,-7.2604,-7.2553,-7.2471,-7.2614,-7.2667,-7.2689,-7.2393,-7.239,-7.2388,-7.2386,0,0,-7.2349,-7.2365,-7.2389,-7.2404,-7.2424,-7.247,-7.2544,-7.2588,-7.2619,-7.2646,-7.2705,-7.2779,-7.2731,-7.2753,-7.2727,-7.2782,-7.2918,-7.2723,-7.2723,-7.2758,-7.3063,-7.3101,-7.3127,-7.2888,-7.2893,-7.2896,-7.3061,0,-7.2516,-7.2644,-7.2615,-7.2741,-7.2796,-7.2734,-7.2798,-7.2816,-7.281,-7.2855,-7.2847,-7.2899,-7.2833,-7.2846,-7.2897,-7.2891,-7.2979,-7.2879,-7.2942,-7.2945,-7.2938,-7.3155,-7.3195,-7.3351,-7.3082,-7.3085,-7.3088,0,-7.2729,-7.2764,-7.2896,-7.2904,-7.2926,-7.2985,-7.3022,-7.3066,-7.3085,-7.3076,-7.3101,-7.3064,-7.3135,-7.3053,-7.3149,-7.3082,-7.3106,-7.3107,-7.3112,-7.3116,-7.3025,-7.3164,-7.34,-7.3423,-7.3121,-7.3118,-7.3116,0,-7.2889,-7.2969,-7.3057,-7.3072,-7.3085,-7.3127,-7.3134,-7.3148,-7.3176,-7.3208,-7.3225,-7.3265,-7.3287,-7.3318,-7.3292,-7.3235,-7.3393,-7.3309,-7.3386,-7.3387,-7.3422,-7.342,-7.3664,-7.3439,-7.3439,-7.3439,-7.3438,0,-7.3079,-7.3161,-7.3129,-7.3183,-7.3273,-7.3238,-7.3328,-7.3327,-7.334,-7.3392,-7.3341,-7.3391,-7.3354,-7.34,-7.338,-7.3462,-7.3473,-7.3467,-7.346,-7.3471,-7.3472,-7.3485,-7.3473,-7.3445,-7.3443,-7.3442,-7.3441,0,-7.3272,-7.3254,-7.3346,-7.3351,-7.3354,-7.342,-7.3423,-7.3472,-7.3462,-7.3528,-7.3542,-7.3525,-7.3577,-7.3554,-7.3608,-7.3595,-7.37,-7.368,-7.3694,-7.3689,-7.3767,-7.3759,-7.4028,-7.406,-7.3816,-7.3819,-7.3821,0,-7.3394,-7.3456,-7.3467,-7.3499,-7.351,-7.3561,-7.3589,-7.3557,-7.3588,-7.3613,-7.3659,-7.3706,-7.3742,-7.3827,-7.3819,-7.386,-7.384,-7.3931,-7.3845,-7.3854,-7.3839,-7.3836,-7.3841,-7.3948,-7.395,-7.3953,-7.3955,0,-7.3612,-7.36,-7.3643,-7.3682,-7.3717,-7.3747,-7.3772,-7.38,-7.3768,-7.3805,-7.3858,-7.3886,-7.3941,-7.3988,-7.4024,-7.4029,-7.3987,-7.3982,-7.4001,-7.4012,-7.4018,-7.4014,-7.374,-7.3976,-7.3973,-7.3972,-7.3971,-7.397,-7.3773,-7.3824,-7.384,-7.3889,-7.3904,-7.3928,-7.3974,-7.397,-7.4013,-7.4056,-7.4034,-7.4094,-7.4109,-7.4153,-7.4164,-7.421,-7.4174,-7.4203,-7.421,-7.4218,-7.4228,-7.4011,-7.4217,-7.4216,-7.4216,-7.4215,-7.4215,0,-7.3986,-7.3993,-7.4039,-7.4075,-7.4113,-7.407,-7.4095,-7.413,-7.4184,-7.4202,-7.4238,-7.4298,-7.4343,-7.4338,-7.4379,-7.4417,-7.4398,-7.4428,-7.4425,-7.4426,-7.4258,-7.4236,-7.4443,-7.4443,-7.4443,-7.4443,-7.4443,-7.4443,-7.4102,-7.4187,-7.4176,-7.4267,-7.4272,-7.4332,-7.435,-7.4371,-7.4385,-7.4454,-7.4491,-7.4488,-7.4497,-7.4537,-7.4576,-7.4574,-7.459,-7.4628,-7.4618,-7.4461,-7.4438,-7.4417,-7.4396,-7.4632,-7.4633,-7.4782,-7.4783,-7.4785]}]]